contact:dominique.lefevre@mio.osupytheas.fr, maurice.libes@osupytheas.fr, didier.mallarino@osupytheas.fr
Project:EMSO http://www.emso-fr.org/EMSO-France
Depth: 2436.0 m
Title:EMSO Ligure Ouest : Data MII capteur MICROCAT
DateTime_Computer,Latitude,Longitude,Temperature,Conductivity,Pressure,DateTime_Instrument
DateTime_Computer,Latitude,Longitude,degC,S m-1,dbar,DateTime_Instrument
2023-07-27T00:01:15Z,42.805,6.029,13.3039,4.60137,2470.717,2023-7-27T02:03:32Z
2023-07-27T00:04:18Z,42.805,6.029,13.3051,4.60166,2470.693,2023-7-27T02:06:35Z
2023-07-27T00:07:21Z,42.805,6.029,13.3046,4.60152,2470.73,2023-7-27T02:09:38Z
2023-07-27T00:10:24Z,42.805,6.029,13.3048,4.60129,2470.707,2023-7-27T02:12:41Z
2023-07-27T00:13:27Z,42.805,6.029,13.3041,4.60153,2470.74,2023-7-27T02:15:45Z
2023-07-27T00:16:30Z,42.805,6.029,13.3054,4.60144,2470.707,2023-7-27T02:18:48Z
2023-07-27T00:19:33Z,42.805,6.029,13.3056,4.60127,2470.707,2023-7-27T02:21:51Z
2023-07-27T00:22:36Z,42.805,6.029,13.3055,4.60163,2470.717,2023-7-27T02:24:54Z
2023-07-27T00:25:39Z,42.805,6.029,13.3062,4.60147,2470.73,2023-7-27T02:27:57Z
2023-07-27T00:28:42Z,42.805,6.029,13.3071,4.60183,2470.707,2023-7-27T02:31:00Z
2023-07-27T00:31:45Z,42.805,6.029,13.3058,4.60152,2470.693,2023-7-27T02:34:03Z
2023-07-27T00:34:48Z,42.805,6.029,13.3060,4.60144,2470.717,2023-7-27T02:37:06Z
2023-07-27T00:37:52Z,42.805,6.029,13.3055,4.60162,2470.74,2023-7-27T02:40:09Z
2023-07-27T00:40:55Z,42.805,6.029,13.3058,4.60150,2470.74,2023-7-27T02:43:12Z
2023-07-27T00:43:58Z,42.805,6.029,13.3041,4.60155,2470.73,2023-7-27T02:46:15Z
2023-07-27T00:47:01Z,42.805,6.029,13.3041,4.60161,2470.717,2023-7-27T02:49:18Z
2023-07-27T00:50:04Z,42.805,6.029,13.3064,4.60141,2470.707,2023-7-27T02:52:21Z
2023-07-27T00:53:07Z,42.805,6.029,13.3049,4.60168,2470.707,2023-7-27T02:55:25Z
2023-07-27T00:56:10Z,42.805,6.029,13.3043,4.60142,2470.693,2023-7-27T02:58:28Z
2023-07-27T00:59:13Z,42.805,6.029,13.3036,4.60121,2470.717,2023-7-27T03:01:31Z
2023-07-27T01:02:16Z,42.805,6.029,13.3042,4.60135,2470.707,2023-7-27T03:04:34Z
2023-07-27T01:05:19Z,42.805,6.029,13.3043,4.60144,2470.73,2023-7-27T03:07:37Z
2023-07-27T01:08:22Z,42.805,6.029,13.3054,4.60135,2470.707,2023-7-27T03:10:40Z
2023-07-27T01:11:25Z,42.805,6.029,13.3046,4.60138,2470.73,2023-7-27T03:13:43Z
2023-07-27T01:14:28Z,42.805,6.029,13.3039,4.60170,2470.703,2023-7-27T03:16:46Z
2023-07-27T01:17:32Z,42.805,6.029,13.3058,4.60155,2470.717,2023-7-27T03:19:49Z
2023-07-27T01:20:35Z,42.805,6.029,13.3051,4.60152,2470.707,2023-7-27T03:22:52Z
2023-07-27T01:23:38Z,42.805,6.029,13.3068,4.60169,2470.73,2023-7-27T03:25:55Z
2023-07-27T01:26:41Z,42.805,6.029,13.3048,4.60151,2470.707,2023-7-27T03:28:58Z
2023-07-27T01:29:44Z,42.805,6.029,13.3045,4.60144,2470.73,2023-7-27T03:32:02Z
2023-07-27T01:32:47Z,42.805,6.029,13.3049,4.60125,2470.763,2023-7-27T03:35:05Z
2023-07-27T01:35:50Z,42.805,6.029,13.3048,4.60151,2470.707,2023-7-27T03:38:08Z
2023-07-27T01:38:53Z,42.805,6.029,13.3056,4.60143,2470.693,2023-7-27T03:41:11Z
2023-07-27T01:41:56Z,42.805,6.029,13.3054,4.60146,2470.754,2023-7-27T03:44:14Z
2023-07-27T01:44:59Z,42.805,6.029,13.3067,4.60185,2470.717,2023-7-27T03:47:17Z
2023-07-27T01:48:02Z,42.805,6.029,13.3068,4.60158,2470.717,2023-7-27T03:50:20Z
2023-07-27T01:51:05Z,42.805,6.029,13.3058,4.60197,2470.693,2023-7-27T03:53:23Z
2023-07-27T01:54:09Z,42.805,6.029,13.3066,4.60192,2470.73,2023-7-27T03:56:26Z
2023-07-27T01:57:12Z,42.805,6.029,13.3071,4.60140,2470.693,2023-7-27T03:59:29Z
2023-07-27T02:00:15Z,42.805,6.029,13.3089,4.60151,2470.717,2023-7-27T04:02:32Z
2023-07-27T02:03:18Z,42.805,6.029,13.3093,4.60165,2470.646,2023-7-27T04:05:35Z
2023-07-27T02:06:21Z,42.805,6.029,13.3096,4.60137,2470.707,2023-7-27T04:08:39Z
2023-07-27T02:09:24Z,42.805,6.029,13.3078,4.60149,2470.707,2023-7-27T04:11:42Z
2023-07-27T02:12:27Z,42.805,6.029,13.3081,4.60182,2470.74,2023-7-27T04:14:45Z
2023-07-27T02:15:30Z,42.805,6.029,13.3046,4.60194,2470.717,2023-7-27T04:17:48Z
2023-07-27T02:18:33Z,42.805,6.029,13.3063,4.60119,2470.693,2023-7-27T04:20:51Z
2023-07-27T02:21:36Z,42.805,6.029,13.3048,4.60178,2470.693,2023-7-27T04:23:54Z
2023-07-27T02:24:39Z,42.805,6.029,13.3062,4.60147,2470.717,2023-7-27T04:26:57Z
2023-07-27T02:27:42Z,42.805,6.029,13.3054,4.60155,2470.73,2023-7-27T04:30:00Z
2023-07-27T02:30:46Z,42.805,6.029,13.3084,4.60149,2470.717,2023-7-27T04:33:03Z
2023-07-27T02:33:49Z,42.805,6.029,13.3100,4.60161,2470.693,2023-7-27T04:36:06Z
2023-07-27T02:36:52Z,42.805,6.029,13.3080,4.60127,2470.693,2023-7-27T04:39:09Z
2023-07-27T02:39:55Z,42.805,6.029,13.3046,4.60133,2470.707,2023-7-27T04:42:12Z
2023-07-27T02:42:58Z,42.805,6.029,13.3069,4.60170,2470.754,2023-7-27T04:45:16Z
2023-07-27T02:46:01Z,42.805,6.029,13.3078,4.60138,2470.693,2023-7-27T04:48:19Z
2023-07-27T02:49:04Z,42.805,6.029,13.3051,4.60131,2470.73,2023-7-27T04:51:22Z
2023-07-27T02:52:07Z,42.805,6.029,13.3052,4.60125,2470.693,2023-7-27T04:54:25Z
2023-07-27T02:55:10Z,42.805,6.029,13.3058,4.60142,2470.73,2023-7-27T04:57:28Z
2023-07-27T02:58:13Z,42.805,6.029,13.3061,4.60128,2470.707,2023-7-27T05:00:31Z
2023-07-27T03:01:16Z,42.805,6.029,13.3060,4.60155,2470.693,2023-7-27T05:03:34Z
2023-07-27T03:04:20Z,42.805,6.029,13.3067,4.60160,2470.707,2023-7-27T05:06:37Z
2023-07-27T03:07:23Z,42.805,6.029,13.3070,4.60162,2470.73,2023-7-27T05:09:40Z
2023-07-27T03:10:26Z,42.805,6.029,13.3082,4.60144,2470.707,2023-7-27T05:12:43Z
2023-07-27T03:13:29Z,42.805,6.029,13.3093,4.60119,2470.707,2023-7-27T05:15:46Z
2023-07-27T03:16:32Z,42.805,6.029,13.3077,4.60153,2470.707,2023-7-27T05:18:50Z
2023-07-27T03:19:35Z,42.805,6.029,13.3091,4.60162,2470.661,2023-7-27T05:21:53Z
2023-07-27T03:22:38Z,42.805,6.029,13.3094,4.60152,2470.67,2023-7-27T05:24:56Z
2023-07-27T03:25:41Z,42.805,6.029,13.3089,4.60127,2470.684,2023-7-27T05:27:59Z
2023-07-27T03:28:44Z,42.805,6.029,13.3099,4.60137,2470.707,2023-7-27T05:31:02Z
2023-07-27T03:31:47Z,42.805,6.029,13.3112,4.60119,2470.707,2023-7-27T05:34:05Z
2023-07-27T03:34:50Z,42.805,6.029,13.3086,4.60119,2470.707,2023-7-27T05:37:08Z
2023-07-27T03:37:53Z,42.805,6.029,13.3026,4.60121,2470.693,2023-7-27T05:40:11Z
2023-07-27T03:40:56Z,42.805,6.029,13.3051,4.60117,2470.67,2023-7-27T05:43:14Z
2023-07-27T03:44:00Z,42.805,6.029,13.3026,4.60152,2470.693,2023-7-27T05:46:17Z
2023-07-27T03:47:03Z,42.805,6.029,13.3034,4.60114,2470.684,2023-7-27T05:49:20Z
2023-07-27T03:50:06Z,42.805,6.029,13.3033,4.60098,2470.67,2023-7-27T05:52:23Z
2023-07-27T03:53:09Z,42.805,6.029,13.3025,4.60104,2470.693,2023-7-27T05:55:27Z
2023-07-27T03:56:12Z,42.805,6.029,13.3021,4.60097,2470.693,2023-7-27T05:58:30Z
2023-07-27T03:59:15Z,42.805,6.029,13.3022,4.60092,2470.684,2023-7-27T06:01:33Z
2023-07-27T04:02:18Z,42.805,6.029,13.3028,4.60091,2470.67,2023-7-27T06:04:36Z
2023-07-27T04:05:21Z,42.805,6.029,13.3026,4.60093,2470.693,2023-7-27T06:07:39Z
2023-07-27T04:08:24Z,42.805,6.029,13.3027,4.60096,2470.684,2023-7-27T06:10:42Z
2023-07-27T04:11:27Z,42.805,6.029,13.3026,4.60092,2470.707,2023-7-27T06:13:45Z
2023-07-27T04:14:30Z,42.805,6.029,13.3022,4.60092,2470.67,2023-7-27T06:16:48Z
2023-07-27T04:17:33Z,42.805,6.029,13.3027,4.60096,2470.693,2023-7-27T06:19:51Z
2023-07-27T04:20:37Z,42.805,6.029,13.3028,4.60089,2470.646,2023-7-27T06:22:54Z
2023-07-27T04:23:40Z,42.805,6.029,13.3026,4.60088,2470.67,2023-7-27T06:25:57Z
2023-07-27T04:26:43Z,42.805,6.029,13.3025,4.60087,2470.684,2023-7-27T06:29:00Z
2023-07-27T04:29:46Z,42.805,6.029,13.3025,4.60087,2470.67,2023-7-27T06:32:03Z
2023-07-27T04:32:49Z,42.805,6.029,13.3024,4.60087,2470.67,2023-7-27T06:35:07Z
2023-07-27T04:35:52Z,42.805,6.029,13.3022,4.60087,2470.67,2023-7-27T06:38:10Z
2023-07-27T04:38:55Z,42.805,6.029,13.3026,4.60092,2470.684,2023-7-27T06:41:13Z
2023-07-27T04:41:58Z,42.805,6.029,13.3022,4.60087,2470.661,2023-7-27T06:44:16Z
2023-07-27T04:45:01Z,42.805,6.029,13.3025,4.60092,2470.707,2023-7-27T06:47:19Z
2023-07-27T04:48:04Z,42.805,6.029,13.3024,4.60089,2470.661,2023-7-27T06:50:22Z
2023-07-27T04:51:07Z,42.805,6.029,13.3028,4.60087,2470.684,2023-7-27T06:53:25Z
2023-07-27T04:54:10Z,42.805,6.029,13.3026,4.60087,2470.684,2023-7-27T06:56:28Z
2023-07-27T04:57:14Z,42.805,6.029,13.3021,4.60087,2470.684,2023-7-27T06:59:31Z
2023-07-27T05:00:17Z,42.805,6.029,13.3025,4.60089,2470.67,2023-7-27T07:02:34Z
2023-07-27T05:03:20Z,42.805,6.029,13.3026,4.60087,2470.661,2023-7-27T07:05:37Z
2023-07-27T05:06:23Z,42.805,6.029,13.3026,4.60086,2470.693,2023-7-27T07:08:41Z
2023-07-27T05:09:26Z,42.805,6.029,13.3021,4.60089,2470.684,2023-7-27T07:11:44Z
2023-07-27T05:12:29Z,42.805,6.029,13.3024,4.60084,2470.67,2023-7-27T07:14:47Z
2023-07-27T05:15:32Z,42.805,6.029,13.3026,4.60085,2470.646,2023-7-27T07:17:50Z
2023-07-27T05:18:35Z,42.805,6.029,13.3026,4.60092,2470.707,2023-7-27T07:20:53Z
2023-07-27T05:21:38Z,42.805,6.029,13.3026,4.60093,2470.67,2023-7-27T07:23:56Z
2023-07-27T05:24:41Z,42.805,6.029,13.3025,4.60087,2470.646,2023-7-27T07:26:59Z
2023-07-27T05:27:44Z,42.805,6.029,13.3024,4.60087,2470.693,2023-7-27T07:30:02Z
2023-07-27T05:30:48Z,42.805,6.029,13.3025,4.60086,2470.646,2023-7-27T07:33:05Z
2023-07-27T05:33:51Z,42.805,6.029,13.3023,4.60087,2470.637,2023-7-27T07:36:08Z
2023-07-27T05:36:54Z,42.805,6.029,13.3026,4.60087,2470.646,2023-7-27T07:39:11Z
2023-07-27T05:39:57Z,42.805,6.029,13.3020,4.60086,2470.646,2023-7-27T07:42:14Z
2023-07-27T05:43:00Z,42.805,6.029,13.3024,4.60087,2470.6,2023-7-27T07:45:18Z
2023-07-27T05:46:03Z,42.805,6.029,13.3024,4.60085,2470.646,2023-7-27T07:48:21Z
2023-07-27T05:49:06Z,42.805,6.029,13.3024,4.60087,2470.684,2023-7-27T07:51:24Z
2023-07-27T05:52:09Z,42.805,6.029,13.3029,4.60087,2470.624,2023-7-27T07:54:27Z
2023-07-27T05:55:12Z,42.805,6.029,13.3023,4.60086,2470.661,2023-7-27T07:57:30Z
2023-07-27T05:58:15Z,42.805,6.029,13.3021,4.60087,2470.646,2023-7-27T08:00:33Z
2023-07-27T06:01:18Z,42.805,6.029,13.3025,4.60087,2470.624,2023-7-27T08:03:36Z
2023-07-27T06:04:21Z,42.805,6.029,13.3028,4.60087,2470.67,2023-7-27T08:06:39Z
2023-07-27T06:07:25Z,42.805,6.029,13.3024,4.60086,2470.646,2023-7-27T08:09:42Z
2023-07-27T06:10:28Z,42.805,6.029,13.3026,4.60085,2470.661,2023-7-27T08:12:45Z
2023-07-27T06:13:31Z,42.805,6.029,13.3025,4.60085,2470.646,2023-7-27T08:15:48Z
2023-07-27T06:16:34Z,42.805,6.029,13.3026,4.60084,2470.646,2023-7-27T08:18:51Z
2023-07-27T06:19:37Z,42.805,6.029,13.3026,4.60085,2470.61,2023-7-27T08:21:55Z
2023-07-27T06:22:40Z,42.805,6.029,13.3027,4.60086,2470.67,2023-7-27T08:24:58Z
2023-07-27T06:25:43Z,42.805,6.029,13.3021,4.60087,2470.637,2023-7-27T08:28:01Z
2023-07-27T06:28:46Z,42.805,6.029,13.3026,4.60088,2470.646,2023-7-27T08:31:04Z
2023-07-27T06:31:48Z,42.805,6.029,13.3026,4.60092,2470.646,2023-7-27T08:34:05Z
2023-07-27T06:34:51Z,42.805,6.029,13.3022,4.60088,2470.633,2023-7-27T08:37:08Z
2023-07-27T06:37:54Z,42.805,6.029,13.3023,4.60087,2470.624,2023-7-27T08:40:11Z
2023-07-27T06:40:57Z,42.805,6.029,13.3028,4.60087,2470.646,2023-7-27T08:43:15Z
2023-07-27T06:44:00Z,42.805,6.029,13.3022,4.60089,2470.624,2023-7-27T08:46:18Z
2023-07-27T06:47:03Z,42.805,6.029,13.3028,4.60087,2470.6,2023-7-27T08:49:21Z
2023-07-27T06:50:06Z,42.805,6.029,13.3021,4.60089,2470.637,2023-7-27T08:52:24Z
2023-07-27T06:53:09Z,42.805,6.029,13.3023,4.60087,2470.637,2023-7-27T08:55:27Z
2023-07-27T06:56:12Z,42.805,6.029,13.3026,4.60087,2470.624,2023-7-27T08:58:30Z
2023-07-27T06:59:15Z,42.805,6.029,13.3029,4.60089,2470.646,2023-7-27T09:01:33Z
2023-07-27T07:02:18Z,42.805,6.029,13.3025,4.60087,2470.637,2023-7-27T09:04:36Z
2023-07-27T07:05:22Z,42.805,6.029,13.3026,4.60087,2470.624,2023-7-27T09:07:39Z
2023-07-27T07:08:25Z,42.805,6.029,13.3026,4.60092,2470.646,2023-7-27T09:10:42Z
2023-07-27T07:11:28Z,42.805,6.029,13.3024,4.60092,2470.624,2023-7-27T09:13:45Z
2023-07-27T07:14:31Z,42.805,6.029,13.3026,4.60087,2470.637,2023-7-27T09:16:49Z
2023-07-27T07:17:34Z,42.805,6.029,13.3025,4.60090,2470.646,2023-7-27T09:19:52Z
2023-07-27T07:20:37Z,42.805,6.029,13.3021,4.60087,2470.624,2023-7-27T09:22:55Z
2023-07-27T07:23:40Z,42.805,6.029,13.3024,4.60087,2470.684,2023-7-27T09:25:58Z
2023-07-27T07:26:43Z,42.805,6.029,13.3024,4.60087,2470.646,2023-7-27T09:29:01Z
2023-07-27T07:29:46Z,42.805,6.029,13.3026,4.60084,2470.624,2023-7-27T09:32:04Z
2023-07-27T07:32:49Z,42.805,6.029,13.3022,4.60093,2470.624,2023-7-27T09:35:07Z
2023-07-27T07:35:52Z,42.805,6.029,13.3027,4.60086,2470.614,2023-7-27T09:38:10Z
2023-07-27T07:38:55Z,42.805,6.029,13.3026,4.60088,2470.6,2023-7-27T09:41:13Z
2023-07-27T07:41:59Z,42.805,6.029,13.3028,4.60089,2470.637,2023-7-27T09:44:16Z
2023-07-27T07:45:02Z,42.805,6.029,13.3020,4.60089,2470.624,2023-7-27T09:47:19Z
2023-07-27T07:48:05Z,42.805,6.029,13.3026,4.60085,2470.646,2023-7-27T09:50:22Z
2023-07-27T07:51:08Z,42.805,6.029,13.3026,4.60089,2470.6,2023-7-27T09:53:26Z
2023-07-27T07:54:11Z,42.805,6.029,13.3025,4.60090,2470.624,2023-7-27T09:56:29Z
2023-07-27T07:57:14Z,42.805,6.029,13.3026,4.60090,2470.614,2023-7-27T09:59:32Z
2023-07-27T08:00:17Z,42.805,6.029,13.3028,4.60087,2470.624,2023-7-27T10:02:35Z
2023-07-27T08:03:20Z,42.805,6.029,13.3026,4.60100,2470.624,2023-7-27T10:05:38Z
2023-07-27T08:06:23Z,42.805,6.029,13.3024,4.60089,2470.6,2023-7-27T10:08:41Z
2023-07-27T08:09:26Z,42.805,6.029,13.3026,4.60087,2470.591,2023-7-27T10:11:44Z
2023-07-27T08:12:29Z,42.805,6.029,13.3024,4.60087,2470.637,2023-7-27T10:14:47Z
2023-07-27T08:15:33Z,42.805,6.029,13.3024,4.60087,2470.6,2023-7-27T10:17:50Z
2023-07-27T08:18:36Z,42.805,6.029,13.3026,4.60089,2470.624,2023-7-27T10:20:53Z
2023-07-27T08:21:39Z,42.805,6.029,13.3039,4.60091,2470.637,2023-7-27T10:23:56Z
2023-07-27T08:24:42Z,42.805,6.029,13.3028,4.60095,2470.6,2023-7-27T10:26:59Z
2023-07-27T08:27:45Z,42.805,6.029,13.3024,4.60090,2470.6,2023-7-27T10:30:03Z
2023-07-27T08:30:46Z,42.805,6.029,13.3024,4.60092,2470.6,2023-7-27T10:33:04Z
2023-07-27T08:33:49Z,42.805,6.029,13.3028,4.60092,2470.577,2023-7-27T10:36:07Z
2023-07-27T08:36:52Z,42.805,6.029,13.3028,4.60085,2470.624,2023-7-27T10:39:10Z
2023-07-27T08:39:56Z,42.805,6.029,13.3023,4.60087,2470.624,2023-7-27T10:42:13Z
2023-07-27T08:42:59Z,42.805,6.029,13.3024,4.60084,2470.6,2023-7-27T10:45:16Z
2023-07-27T08:46:02Z,42.805,6.029,13.3025,4.60087,2470.624,2023-7-27T10:48:19Z
2023-07-27T08:49:05Z,42.805,6.029,13.3022,4.60089,2470.614,2023-7-27T10:51:23Z
2023-07-27T08:52:08Z,42.805,6.029,13.3024,4.60086,2470.614,2023-7-27T10:54:26Z
2023-07-27T08:55:11Z,42.805,6.029,13.3024,4.60088,2470.6,2023-7-27T10:57:29Z
2023-07-27T08:58:14Z,42.805,6.029,13.3027,4.60086,2470.624,2023-7-27T11:00:32Z
2023-07-27T09:01:17Z,42.805,6.029,13.3025,4.60087,2470.6,2023-7-27T11:03:35Z
2023-07-27T09:04:20Z,42.805,6.029,13.3024,4.60087,2470.637,2023-7-27T11:06:38Z
2023-07-27T09:07:23Z,42.805,6.029,13.3022,4.60084,2470.661,2023-7-27T11:09:41Z
2023-07-27T09:10:26Z,42.805,6.029,13.3027,4.60084,2470.624,2023-7-27T11:12:44Z
2023-07-27T09:13:30Z,42.805,6.029,13.3024,4.60085,2470.6,2023-7-27T11:15:47Z
2023-07-27T09:16:33Z,42.805,6.029,13.3024,4.60086,2470.624,2023-7-27T11:18:50Z
2023-07-27T09:19:36Z,42.805,6.029,13.3027,4.60084,2470.637,2023-7-27T11:21:53Z
2023-07-27T09:22:39Z,42.805,6.029,13.3026,4.60084,2470.6,2023-7-27T11:24:56Z
2023-07-27T09:25:42Z,42.805,6.029,13.3025,4.60089,2470.6,2023-7-27T11:28:00Z
2023-07-27T09:28:45Z,42.805,6.029,13.3023,4.60086,2470.646,2023-7-27T11:31:03Z
2023-07-27T09:31:48Z,42.805,6.029,13.3026,4.60087,2470.6,2023-7-27T11:34:06Z
2023-07-27T09:34:51Z,42.805,6.029,13.3024,4.60088,2470.646,2023-7-27T11:37:09Z
2023-07-27T09:37:54Z,42.805,6.029,13.3025,4.60084,2470.661,2023-7-27T11:40:12Z
2023-07-27T09:40:57Z,42.805,6.029,13.3024,4.60086,2470.624,2023-7-27T11:43:15Z
2023-07-27T09:44:00Z,42.805,6.029,13.3026,4.60084,2470.624,2023-7-27T11:46:18Z
2023-07-27T09:47:03Z,42.805,6.029,13.3021,4.60086,2470.646,2023-7-27T11:49:21Z
2023-07-27T09:50:07Z,42.805,6.029,13.3027,4.60087,2470.637,2023-7-27T11:52:24Z
2023-07-27T09:53:10Z,42.805,6.029,13.3024,4.60084,2470.646,2023-7-27T11:55:27Z
2023-07-27T09:56:13Z,42.805,6.029,13.3026,4.60084,2470.646,2023-7-27T11:58:30Z
2023-07-27T09:59:16Z,42.805,6.029,13.3033,4.60085,2470.624,2023-7-27T12:01:34Z
2023-07-27T10:02:19Z,42.805,6.029,13.3024,4.60084,2470.6,2023-7-27T12:04:37Z
2023-07-27T10:05:22Z,42.805,6.029,13.3024,4.60089,2470.646,2023-7-27T12:07:40Z
2023-07-27T10:08:25Z,42.805,6.029,13.3032,4.60085,2470.637,2023-7-27T12:10:43Z
2023-07-27T10:11:28Z,42.805,6.029,13.3021,4.60084,2470.624,2023-7-27T12:13:46Z
2023-07-27T10:14:31Z,42.805,6.029,13.3024,4.60087,2470.646,2023-7-27T12:16:49Z
2023-07-27T10:17:34Z,42.805,6.029,13.3026,4.60086,2470.646,2023-7-27T12:19:52Z
2023-07-27T10:20:37Z,42.805,6.029,13.3021,4.60085,2470.661,2023-7-27T12:22:55Z
2023-07-27T10:23:41Z,42.805,6.029,13.3024,4.60089,2470.684,2023-7-27T12:25:58Z
2023-07-27T10:26:44Z,42.805,6.029,13.3024,4.60084,2470.646,2023-7-27T12:29:01Z
2023-07-27T10:29:47Z,42.805,6.029,13.3029,4.60087,2470.624,2023-7-27T12:32:04Z
2023-07-27T10:32:50Z,42.805,6.029,13.3045,4.60110,2470.624,2023-7-27T12:35:08Z
2023-07-27T10:35:53Z,42.805,6.029,13.3041,4.60102,2470.624,2023-7-27T12:38:11Z
2023-07-27T10:38:56Z,42.805,6.029,13.3030,4.60089,2470.637,2023-7-27T12:41:14Z
2023-07-27T10:41:59Z,42.805,6.029,13.3025,4.60091,2470.67,2023-7-27T12:44:17Z
2023-07-27T10:45:02Z,42.805,6.029,13.3029,4.60085,2470.67,2023-7-27T12:47:20Z
2023-07-27T10:48:05Z,42.805,6.029,13.3026,4.60087,2470.67,2023-7-27T12:50:23Z
2023-07-27T10:51:08Z,42.805,6.029,13.3029,4.60086,2470.661,2023-7-27T12:53:26Z
2023-07-27T10:54:11Z,42.805,6.029,13.3031,4.60087,2470.661,2023-7-27T12:56:29Z
2023-07-27T10:57:15Z,42.805,6.029,13.3030,4.60091,2470.67,2023-7-27T12:59:32Z
2023-07-27T11:00:18Z,42.805,6.029,13.3034,4.60087,2470.624,2023-7-27T13:02:35Z
2023-07-27T11:03:21Z,42.805,6.029,13.3033,4.60103,2470.646,2023-7-27T13:05:38Z
2023-07-27T11:06:24Z,42.805,6.029,13.3031,4.60086,2470.646,2023-7-27T13:08:41Z
2023-07-27T11:09:27Z,42.805,6.029,13.3047,4.60124,2470.67,2023-7-27T13:11:45Z
2023-07-27T11:12:30Z,42.805,6.029,13.3034,4.60107,2470.67,2023-7-27T13:14:48Z
2023-07-27T11:15:33Z,42.805,6.029,13.3039,4.60113,2470.693,2023-7-27T13:17:51Z
2023-07-27T11:18:36Z,42.805,6.029,13.3029,4.60092,2470.646,2023-7-27T13:20:54Z
2023-07-27T11:21:39Z,42.805,6.029,13.3039,4.60104,2470.684,2023-7-27T13:23:57Z
2023-07-27T11:24:42Z,42.805,6.029,13.3039,4.60089,2470.693,2023-7-27T13:27:00Z
2023-07-27T11:27:45Z,42.805,6.029,13.3036,4.60097,2470.707,2023-7-27T13:30:03Z
2023-07-27T11:30:49Z,42.805,6.029,13.3036,4.60110,2470.707,2023-7-27T13:33:06Z
2023-07-27T11:33:52Z,42.805,6.029,13.3026,4.60087,2470.707,2023-7-27T13:36:09Z
2023-07-27T11:36:55Z,42.805,6.029,13.3033,4.60100,2470.684,2023-7-27T13:39:12Z
2023-07-27T11:39:58Z,42.805,6.029,13.3043,4.60113,2470.693,2023-7-27T13:42:15Z
2023-07-27T11:43:01Z,42.805,6.029,13.3029,4.60091,2470.67,2023-7-27T13:45:19Z
2023-07-27T11:46:04Z,42.805,6.029,13.3032,4.60099,2470.684,2023-7-27T13:48:22Z
2023-07-27T11:49:07Z,42.805,6.029,13.3032,4.60087,2470.684,2023-7-27T13:51:25Z
2023-07-27T11:52:10Z,42.805,6.029,13.3042,4.60086,2470.67,2023-7-27T13:54:28Z
2023-07-27T11:55:13Z,42.805,6.029,13.3044,4.60108,2470.646,2023-7-27T13:57:31Z
2023-07-27T11:58:16Z,42.805,6.029,13.3049,4.60114,2470.637,2023-7-27T14:00:34Z
2023-07-27T12:01:19Z,42.805,6.029,13.3054,4.60115,2470.67,2023-7-27T14:03:37Z
2023-07-27T12:04:23Z,42.805,6.029,13.3046,4.60102,2470.684,2023-7-27T14:06:40Z
2023-07-27T12:07:26Z,42.805,6.029,13.3048,4.60138,2470.693,2023-7-27T14:09:43Z
2023-07-27T12:10:29Z,42.805,6.029,13.3054,4.60150,2470.67,2023-7-27T14:12:46Z
2023-07-27T12:13:32Z,42.805,6.029,13.3045,4.60137,2470.67,2023-7-27T14:15:49Z
2023-07-27T12:16:35Z,42.805,6.029,13.3049,4.60129,2470.717,2023-7-27T14:18:53Z
2023-07-27T12:19:38Z,42.805,6.029,13.3039,4.60099,2470.646,2023-7-27T14:21:56Z
2023-07-27T12:22:41Z,42.805,6.029,13.3056,4.60135,2470.693,2023-7-27T14:24:59Z
2023-07-27T12:25:44Z,42.805,6.029,13.3046,4.60152,2470.646,2023-7-27T14:28:02Z
2023-07-27T12:28:47Z,42.805,6.029,13.3056,4.60133,2470.73,2023-7-27T14:31:05Z
2023-07-27T12:31:52Z,42.805,6.029,13.3043,4.60112,2470.707,2023-7-27T14:34:10Z
2023-07-27T12:34:55Z,42.805,6.029,13.3059,4.60127,2470.717,2023-7-27T14:37:13Z
2023-07-27T12:37:58Z,42.805,6.029,13.3056,4.60110,2470.67,2023-7-27T14:40:16Z
2023-07-27T12:41:01Z,42.805,6.029,13.3037,4.60131,2470.717,2023-7-27T14:43:19Z
2023-07-27T12:44:04Z,42.805,6.029,13.3041,4.60110,2470.693,2023-7-27T14:46:22Z
2023-07-27T12:47:07Z,42.805,6.029,13.3040,4.60128,2470.74,2023-7-27T14:49:25Z
2023-07-27T12:50:10Z,42.805,6.029,13.3034,4.60120,2470.73,2023-7-27T14:52:28Z
2023-07-27T12:53:13Z,42.805,6.029,13.3040,4.60140,2470.717,2023-7-27T14:55:31Z
2023-07-27T12:56:17Z,42.805,6.029,13.3038,4.60119,2470.717,2023-7-27T14:58:34Z
2023-07-27T12:59:20Z,42.805,6.029,13.3034,4.60117,2470.693,2023-7-27T15:01:37Z
2023-07-27T13:02:23Z,42.805,6.029,13.3036,4.60132,2470.693,2023-7-27T15:04:40Z
2023-07-27T13:05:26Z,42.805,6.029,13.3037,4.60130,2470.684,2023-7-27T15:07:43Z
2023-07-27T13:08:29Z,42.805,6.029,13.3036,4.60127,2470.717,2023-7-27T15:10:47Z
2023-07-27T13:11:32Z,42.805,6.029,13.3038,4.60122,2470.717,2023-7-27T15:13:50Z
2023-07-27T13:14:35Z,42.805,6.029,13.3038,4.60114,2470.717,2023-7-27T15:16:53Z
2023-07-27T13:17:38Z,42.805,6.029,13.3034,4.60122,2470.717,2023-7-27T15:19:56Z
2023-07-27T13:20:41Z,42.805,6.029,13.3036,4.60117,2470.693,2023-7-27T15:22:59Z
2023-07-27T13:23:44Z,42.805,6.029,13.3041,4.60102,2470.717,2023-7-27T15:26:02Z
2023-07-27T13:26:47Z,42.805,6.029,13.3037,4.60112,2470.717,2023-7-27T15:29:05Z
2023-07-27T13:29:50Z,42.805,6.029,13.3035,4.60122,2470.717,2023-7-27T15:32:08Z
2023-07-27T13:32:54Z,42.805,6.029,13.3039,4.60138,2470.73,2023-7-27T15:35:11Z
2023-07-27T13:35:57Z,42.805,6.029,13.3041,4.60134,2470.717,2023-7-27T15:38:14Z
2023-07-27T13:39:00Z,42.805,6.029,13.3039,4.60126,2470.74,2023-7-27T15:41:17Z
2023-07-27T13:42:03Z,42.805,6.029,13.3039,4.60127,2470.693,2023-7-27T15:44:21Z
2023-07-27T13:45:06Z,42.805,6.029,13.3043,4.60135,2470.717,2023-7-27T15:47:24Z
2023-07-27T13:48:09Z,42.805,6.029,13.3053,4.60141,2470.693,2023-7-27T15:50:27Z
2023-07-27T13:51:12Z,42.805,6.029,13.3034,4.60117,2470.73,2023-7-27T15:53:30Z
2023-07-27T13:54:15Z,42.805,6.029,13.3039,4.60117,2470.73,2023-7-27T15:56:33Z
2023-07-27T13:57:18Z,42.805,6.029,13.3042,4.60136,2470.754,2023-7-27T15:59:36Z
2023-07-27T14:00:21Z,42.805,6.029,13.3044,4.60154,2470.717,2023-7-27T16:02:39Z
2023-07-27T14:03:24Z,42.805,6.029,13.3034,4.60132,2470.717,2023-7-27T16:05:42Z
2023-07-27T14:06:28Z,42.805,6.029,13.3044,4.60142,2470.693,2023-7-27T16:08:45Z
2023-07-27T14:09:31Z,42.805,6.029,13.3046,4.60137,2470.74,2023-7-27T16:11:48Z
2023-07-27T14:12:34Z,42.805,6.029,13.3048,4.60135,2470.693,2023-7-27T16:14:51Z
2023-07-27T14:15:37Z,42.805,6.029,13.3058,4.60151,2470.73,2023-7-27T16:17:54Z
2023-07-27T14:18:40Z,42.805,6.029,13.3038,4.60135,2470.74,2023-7-27T16:20:58Z
2023-07-27T14:21:43Z,42.805,6.029,13.3043,4.60145,2470.754,2023-7-27T16:24:01Z
2023-07-27T14:24:46Z,42.805,6.029,13.3041,4.60117,2470.73,2023-7-27T16:27:04Z
2023-07-27T14:27:49Z,42.805,6.029,13.3041,4.60144,2470.693,2023-7-27T16:30:07Z
2023-07-27T14:30:52Z,42.805,6.029,13.3046,4.60152,2470.707,2023-7-27T16:33:09Z
2023-07-27T14:33:55Z,42.805,6.029,13.3045,4.60147,2470.74,2023-7-27T16:36:12Z
2023-07-27T14:36:58Z,42.805,6.029,13.3046,4.60144,2470.717,2023-7-27T16:39:15Z
2023-07-27T14:40:01Z,42.805,6.029,13.3039,4.60140,2470.717,2023-7-27T16:42:19Z
2023-07-27T14:43:04Z,42.805,6.029,13.3042,4.60150,2470.717,2023-7-27T16:45:22Z
2023-07-27T14:46:07Z,42.805,6.029,13.3044,4.60137,2470.717,2023-7-27T16:48:25Z
2023-07-27T14:49:10Z,42.805,6.029,13.3043,4.60143,2470.717,2023-7-27T16:51:28Z
2023-07-27T14:52:13Z,42.805,6.029,13.3051,4.60139,2470.717,2023-7-27T16:54:31Z
2023-07-27T14:55:16Z,42.805,6.029,13.3044,4.60144,2470.693,2023-7-27T16:57:34Z
2023-07-27T14:58:19Z,42.805,6.029,13.3045,4.60157,2470.754,2023-7-27T17:00:37Z
2023-07-27T15:01:22Z,42.805,6.029,13.3044,4.60155,2470.693,2023-7-27T17:03:40Z
2023-07-27T15:04:26Z,42.805,6.029,13.3039,4.60152,2470.717,2023-7-27T17:06:43Z
2023-07-27T15:07:29Z,42.805,6.029,13.3042,4.60142,2470.74,2023-7-27T17:09:46Z
2023-07-27T15:10:32Z,42.805,6.029,13.3038,4.60140,2470.707,2023-7-27T17:12:49Z
2023-07-27T15:13:35Z,42.805,6.029,13.3039,4.60143,2470.754,2023-7-27T17:15:53Z